Regional Weather Roundup
Issued by NWS

Home | Current Version | Previous Version | Graphics & Text | Print | Product List | Glossary On
Versions: 1 2 3 4 5 6 7 8 9 10 11 12 13 14 15 16 17 18 19 20 21 22 23 24 25 26 27
000
ASUS45 KTFX 211310
RWRMT
MONTANA REGIONAL WEATHER ROUNDUP
NATIONAL WEATHER SERVICE GREAT FALLS MT
600 AM MST SUN JAN 21 2018

NOTE: "FAIR" INDICATES FEW OR NO CLOUDS BELOW 12000 FEET WITH NO
SIGNIFICANT WEATHER AND/OR OBSTRUCTIONS TO VISIBILITY.

MTZ001>007-043-211400-
WEST OF THE DIVIDE

CITY           SKY/WX    TMP DP  RH WIND       PRES   REMARKS
KALISPELL      CLOUDY    24  24 100 CALM      30.10S
MISSOULA       CLOUDY    30  24  78 SE5       30.13S
BUTTE          FAIR       9   4  80 S5        30.07R
MULLAN PASS    CLOUDY    23  21  92 S5        29.99F FOG
ANACONDA         N/A     16  10  79 N5        30.09R
DEER LODGE       N/A     18  18 100 CALM      30.12R
EUREKA           N/A     34  25  69 MISG      30.09S
HAMILTON         N/A     27  21  80 SE3       30.13S
PLAINS           N/A     26  21  81 CALM      30.12F
RONAN            N/A     30  25  80 SE6       30.12F WCI  24
$$

MTZ008-052>055-211400-
SOUTHWEST MONTANA

CITY           SKY/WX    TMP DP  RH WIND       PRES   REMARKS
BOZEMAN        CLOUDY    15  10  80 CALM      30.09R
DILLON         FAIR      13   8  81 CALM      30.07R
ENNIS          CLEAR     12   7  79 NE5       30.10R
W YELLOWSTONE  FAIR     -15 -18  84 CALM      30.00S
THREE FORKS      N/A     18  15  88 CALM      30.07R
TWIN BRIDGES     N/A     15   8  73 CALM      30.06R
$$

MTZ009-010-012-014-046-048-049-054-211400-
EAST SLOPES AND CENTRAL MONTANA

CITY           SKY/WX    TMP DP  RH WIND       PRES   REMARKS
CUT BANK       FAIR      27  15  61 W21       29.94R WCI  13
GREAT FALLS    FAIR      24  16  71 S14       30.00S WCI  12
MALMSTROM AFB  FAIR      23  17  80 SW14      30.02S WCI  10
HELENA         FAIR      18  15  88 CALM      30.08R
AUGUSTA        FAIR      26  14  61 W16G24    29.96S WCI  13
BOWMANS CRNR   FAIR      22  15  74 SW13      29.97F WCI  10
CHOTEAU          N/A     25  12  58 SW5       29.98S
FAIRFIELD      FAIR      24  14  65 SW8       29.97S WCI  15
POWER          FAIR      14   7  73 SW10      29.98S WCI   1
RAYNESFORD     FAIR      29  15  57 SW22      30.01S WCI  15
ULM            FAIR      21  16  81 S5        30.02S
WHITE SULPHUR    N/A      9   5  85 SE7       30.02F WCI  -3
$$

MTZ011-013-016-021-045-047-050-051-211400-
NORTH CENTRAL MONTANA

CITY           SKY/WX    TMP DP  RH WIND       PRES   REMARKS
HAVRE          FAIR      19  14  81 W12G18    30.00R WCI   7
LEWISTOWN      FAIR      18  12  77 S9        30.00R WCI   7
N BAR RANCH    FAIR      19   9  63 W6        30.00S WCI  11
CHINOOK          N/A     10   9  92 NE3       29.99S
DENTON         FAIR      24  16  69 MISG      29.97S
GEYSER         FAIR      22  15  74 NW9       30.00R WCI  12
GRASS RANGE    FAIR      26  16  66 SW13      29.96R WCI  15
STANFORD       FAIR      23  15  71 W10       29.99R WCI  12
WINIFRED       FAIR      26  16  65 SW10      30.00R WCI  17
$$

MTZ017>020-022>027-061-062-211400-
NORTHEAST MONTANA

CITY           SKY/WX    TMP DP  RH WIND       PRES   REMARKS
GLASGOW        FAIR      14  12  92 NW3       29.99R
GLENDIVE       FAIR      12   9  87 S9        30.00R WCI   0
JORDAN           N/A     14  10  84 W10       30.00R WCI   1
MALTA          CLEAR      3   0  85 W9        30.01S WCI -11
SIDNEY         FAIR      11   9  92 CALM      30.01R
WOLF POINT     MOCLDY     3  -2  79 SW5       30.02R
PLENTYWOOD       N/A     12  10  92 CALM      29.96S
POPLAR           N/A      9   3  78 CALM      30.01S VSB 0
$$

MTZ028>42-056>058-211400-
SOUTHCENTRAL AND SOUTHEAST MONTANA

CITY           SKY/WX    TMP DP  RH WIND       PRES   REMARKS
BAKER          FAIR      11   8  88 CALM      29.99R
BILLINGS       FAIR      22  14  71 SW10      30.03R WCI  11
LIVINGSTON     FAIR      15  11  83 NW13      30.04R WCI   1
MILES CITY     FAIR      13  10  88 SW10      30.02R WCI   0
BIG TIMBER     CLEAR     25  16  68 W23G29    30.02R WCI  10
FORSYTH          N/A     16  14  93 SW7       30.03R WCI   6
HARLOWTON      FAIR      21  15  78 W21       30.00R WCI   5
LAUREL           N/A     19  12  73 SW7       30.05R WCI  10
$$

REGIONAL REPORTS...DAKOTAS

CITY           SKY/WX    TMP DP  RH WIND       PRES   REMARKS
WILLISTON      FAIR       8   5  87 CALM      29.99R
MINOT          FAIR      16  12  84 S8        29.99R WCI   5
DICKINSON      FAIR      20  15  81 W9        29.95S WCI   9
BEACH          FAIR      19  16  86 SW5       30.01R
CROSBY         FAIR       9   7  92 S12       29.98R WCI  -6
TIOGA          FAIR       1   1 100 CALM      29.98S
BISMARCK       FAIR      13  11  92 CALM      30.02R
GRAND FORKS    CLOUDY    20  20 100 N8        30.03R FOG     WCI  10
FARGO          FAIR      17  15  92 N6        30.01R WCI   9
BUFFALO SD       N/A     22  17  81 W9        29.91R WCI  12
RAPID CITY     CLOUDY    28  24  85 NW3       29.98R
$$

REGIONAL REPORTS...WYOMING/IDAHO/WASHINGTON

CITY           SKY/WX    TMP DP  RH WIND       PRES   REMARKS
GILLETTE       CLOUDY    24  18  77 W10       29.96R WCI  14
SHERIDAN       FAIR      28  18  66 W6        30.00R WCI  22
BUFFALO WY     FAIR      25  13  60 N7        29.96S WCI  17
CODY           FAIR      22  15  75 CALM      29.99R
YELLOWSTONE LA   N/A    -14 -18  82 CALM      29.98R
IDAHO FALLS    FAIR      19  15  84 CALM      30.08R
SALMON         FAIR      16  14  92 S3        30.16R
BOISE          FAIR      27  23  85 SE3       30.19R
SPOKANE        MOCLDY    32  29  88 SE10      30.08S WCI  24
$$

REGIONAL REPORTS...ALBERTA

CITY           SKY/WX    TMP DP  RH WIND       PRES   REMARKS
CALGARY        MOCLDY    19  10  68 CALM      29.81F
CARDSTON         N/A     27  14  59 S5          N/A
EDMONTON       CLOUDY    21  19  93 E7        29.85S WCI  13
FORT MCMURRAY  CLEAR      7   3  85 N7        30.01R WCI  -5
HIGH LEVEL     FLURRIES   9   7  92 VRB2      29.98R
LETHBRIDGE     PTCLDY    27  16  63 SW14      29.91S WCI  15
LLOYDMINSTER   CLOUDY    19  18  93 E3        29.88  FOG
MEDICINE HAT   CLEAR     21  18  86 S12       29.91S WCI   9
PEACE RIVER    FLURRIES  16  12  86 NE10      29.84S WCI   3
PINCHER CREEK  MOCLDY    28  18  64 W28G35    29.90F WCI  13
WATERTON GATE    N/A     30  16  55 SW25G36     N/A  WCI  16
$$

REGIONAL REPORTS...SASKATCHEWAN

CITY           SKY/WX    TMP DP  RH WIND       PRES   REMARKS
CORONACH         N/A      9   5  85 E1          N/A
CYPRESS HILLS    N/A     25  12  58 W3          N/A
ESTEVAN        CLEAR      7   3  85 S3        29.98R
MOOSE JAW        N/A     14  10  85 S6          N/A  WCI   5
PRINCE ALBERT  FLURRIES  14  12  92 E6        29.96R WCI   5
REGINA         PTCLDY     9   5  85 SE7       29.94S WCI  -3
ROCKGLEN         N/A     16  12  86 W10         N/A  WCI   3
SASKATOON      CLOUDY    16  14  93 S3        29.93S FOG
SWIFT CURRENT  CLEAR     23  18  80 W15       29.87S WCI  10
VAL MARIE        N/A     -4  -8  84 CALM        N/A
$$




USA.gov is the U.S. government's official web portal to all federal, state and local government web resources and services.